Regional Weather Roundup
Issued by NWS Goodland, KS

Home | Current Version | Previous Version | Graphics & Text | Print | Product List | Glossary On
Versions: 1 2 3 4 5 6 7 8 9 10 11 12 13 14 15 16 17 18 19 20 21 22 23 24 25 26 27 28 29 30 31 32 33 34 35 36 37 38 39 40 41 42 43 44 45 46 47 48 49 50
000
ASUS43 KGLD 282308
RWRGLD

GOODLAND FORECAST AREA HOURLY WEATHER ROUNDUP
NATIONAL WEATHER SERVICE GOODLAND KS
500 PM MDT THU APR 28 2016

...OFFICIAL OBSERVATIONS...

CITY           SKY/WX    TMP DP  RH WIND       PRES   REMARKS
GOODLAND KS    CLOUDY    50  35  56 E5        29.99R
HILL CITY KS   MOSUNNY   57  40  52 NE7       30.00R
IMPERIAL NEB   CLOUDY    46  37  71 N5        30.02R
MCCOOK NEB     CLOUDY    49  38  65 NE8       30.01S
AKRON CO       CLOUDY    39  33  79 CALM      30.02R
BURLINGTON CO  CLOUDY    50  33  52 E10       29.99S
LIMON CO       CLOUDY    40  33  76 E10       29.99R
$$

...UNOFFICIAL OBSERVATIONS...

CITY           SKY/WX    TMP DP  RH WIND       PRES   REMARKS
COLBY KS       MOSUNNY   52  43  71 NE9       30.01S
GOVE KS          N/A     55  32  41 MISG        N/A
LENORA KS        N/A     54  32  43 MISG        N/A
NORTON KS      MOSUNNY   54  37  54 N8        30.00R
SHARON SPRINGS   N/A     53  37  54 E9          N/A
KIT CARSON CO    N/A     47  31  53 MISG        N/A
YUMA CO          N/A     41  35  79 CALM        N/A
$$




USA.gov is the U.S. government's official web portal to all federal, state and local government web resources and services.